TJS-15

导读

TJS-15(通信技术试验十五号)是中国于2025年3月9日,在西昌卫星发射中心,通过长征三号乙运载火箭成功发射的通信技术试验卫星,属于中国TJS系列技术试验卫星的最新成员。官方介绍其主要承担多频段、高速卫星通信技术验证任务,该系列卫星多运行于地球静止轨道,外界推测其也可能开展空间技术试验、在轨服务测试等拓展任务。

Basic Information
目录编号:
63157
目录名称:
TJS-15
国际标识:
2025-045A
轨道中心:
EARTH
卫星名称:
TJS-15
卫星全名:
TJS-15
卫星状态:
在轨 (已飞行554 天)
发射日期:
2025-03-09 UTC
国别 :
中国 (CN)
星等 :
--
This satellite is enrolled in the Space Conjunction Data Service (SCDS) and the current flight risk assessment level is: No High Risk
Orbit Information
数据来源 国际轨道数据 AOE轨道数据
星历时间 2026-09-14T00:51:39+0800
8小时前
查看轨道信息
2026-09-13T04:00:00+0800
1天前
查看轨道信息
半长轴 42164.448km 42164.364km
偏心率 0.0000172 0.0000124
轨道倾角 0.431° 0.429°
近地点辐角 272.269° 267.721°
升交点赤经 84.831° 84.835°
平近点角 337.234° 28.006°
近地点 35785.585km 35785.704km
远地点 35787.037km 35786.75km
周期 1436.082分钟 1436.078分钟
每日圈数 1.002728 1.002731
Detailed Information
使用方式:
暂无
2D Orbit Map
3D Orbit Map
Orbit Altitude Analysis Chart
Orbit Inclination Analysis Chart
Orbit Comprehensive Analysis Chart
View Comprehensive Chart
Miss Distance Evolution Trend with All Objects
Collision Probability Evolution Trend with All Objects